| time (UTC) | temp F | wind direction | speed knots | gust knots | rain 1hr in | rain 24hr in | rain mn in | humidity % | barometer mb |
| 20260504081538 | 47 | 166 | 0.0 | 1.7 | 0.00 | 0.00 | 0.00 | 100 | 1006.8 |
| 20260504050015 | 45 | 162 | 0.0 | 4.3 | 0.00 | 0.00 | 0.00 | 100 | 1009.3 |
| 20260504044519 | 45 | 180 | 0.0 | 2.6 | 0.00 | 0.00 | 0.00 | 100 | 1009.4 |
| 20260504043012 | 45 | 167 | 0.9 | 2.6 | 0.00 | 0.00 | 0.00 | 100 | 1009.3 |
| 20260504041513 | 46 | 166 | 0.0 | 2.6 | 0.00 | 0.00 | 0.00 | 100 | 1009.4 |
| 20260504040013 | 46 | 161 | 0.9 | 2.6 | 0.00 | 0.00 | 0.00 | 100 | 1009.6 |
| 20260504034507 | 46 | 158 | 0.9 | 2.6 | 0.00 | 0.00 | 0.00 | 100 | 1009.8 |
| 20260504033011 | 46 | 176 | 1.7 | 5.2 | 0.00 | 0.00 | 0.00 | 100 | 1009.9 |
| 20260504031504 | 46 | 163 | 1.7 | 5.2 | 0.00 | 0.00 | 0.00 | 100 | 1010.0 |
| 20260504030005 | 47 | 159 | 2.6 | 5.2 | 0.00 | 0.00 | 0.00 | 100 | 1010.1 |
| 20260504024503 | 47 | 184 | 2.6 | 5.2 | 0.00 | 0.00 | 0.00 | 100 | 1010.2 |
| 20260504023002 | 47 | 157 | 1.7 | 7.8 | 0.00 | 0.00 | 0.00 | 100 | 1010.3 |
| 20260504021501 | 47 | 155 | 2.6 | 6.1 | 0.00 | 0.00 | 0.00 | 100 | 1010.2 |
| 20260504020001 | 47 | 165 | 2.6 | 7.8 | 0.00 | 0.00 | 0.00 | 100 | 1010.2 |
| 20260504014601 | 47 | 167 | 2.6 | 6.1 | 0.00 | 0.00 | 0.00 | 100 | 1010.2 |
| 20260504013116 | 48 | 165 | 3.5 | 7.0 | 0.00 | 0.00 | 0.00 | 100 | 1010.3 |
| 20260504011600 | 48 | 148 | 3.5 | 7.8 | 0.00 | 0.00 | 0.00 | 100 | 1010.3 |
| 20260504010105 | 48 | 188 | 4.3 | 8.7 | 0.00 | 0.00 | 0.00 | 100 | 1010.3 |
| 20260504004608 | 49 | 150 | 3.5 | 7.8 | 0.00 | 0.00 | 0.00 | 100 | 1010.5 |
| 20260504003054 | 49 | 161 | 2.6 | 6.1 | 0.00 | 0.00 | 0.00 | 100 | 1010.5 |
| 20260504001553 | 49 | 154 | 2.6 | 5.2 | 0.00 | 0.00 | 0.00 | 100 | 1010.6 |
| 20260504000051 | 50 | 143 | 4.3 | 8.7 | 0.00 | 0.00 | 0.00 | 100 | 1010.7 |
| 20260503234549 | 50 | 165 | 5.2 | 8.7 | 0.00 | 0.00 | 0.00 | 100 | 1010.9 |
| 20260503233048 | 50 | 148 | 4.3 | 9.6 | 0.00 | 0.00 | 0.00 | 100 | 1011.1 |
| 20260503231548 | 50 | 181 | 4.3 | 7.8 | 0.00 | 0.00 | 0.00 | 100 | 1011.2 |
| 20260503230048 | 51 | 163 | 7.0 | 13.0 | 0.00 | 0.00 | 0.00 | 100 | 1011.5 |
| 20260503224542 | 49 | 165 | 4.3 | 8.7 | 0.00 | 0.00 | 0.00 | 100 | 1011.7 |
| 20260503223041 | 49 | 169 | 5.2 | 8.7 | 0.00 | 0.00 | 0.00 | 100 | 1011.8 |
| 20260503221539 | 49 | 171 | 5.2 | 8.7 | 0.00 | 0.00 | 0.00 | 100 | 1011.9 |
| 20260503220038 | 48 | 159 | 3.5 | 9.6 | 0.00 | 0.00 | 0.00 | 100 | 1012.2 |
| 20260503214538 | 49 | 194 | 1.7 | 7.0 | 0.00 | 0.00 | 0.00 | 100 | 1012.1 |
| 20260503213035 | 49 | 155 | 3.5 | 7.8 | 0.00 | 0.00 | 0.00 | 100 | 1012.3 |
| 20260503211534 | 49 | 147 | 2.6 | 7.8 | 0.00 | 0.00 | 0.00 | 100 | 1012.3 |
| 20260503210034 | 50 | 147 | 1.7 | 7.0 | 0.00 | 0.00 | 0.00 | 100 | 1012.8 |
| 20260503204529 | 50 | 165 | 0.9 | 7.0 | 0.00 | 0.00 | 0.00 | 100 | 1013.3 |
| 20260503203128 | 51 | 253 | 3.5 | 8.7 | 0.00 | 0.00 | 0.00 | 100 | 1013.7 |
| 20260503201526 | 52 | 140 | 2.6 | 10.4 | 0.00 | 0.00 | 0.00 | 100 | 1014.0 |
| 20260503200025 | 54 | 109 | 3.5 | 14.8 | 0.00 | 0.00 | 0.00 | 100 | 1014.2 |
| 20260503194525 | 55 | 271 | 2.6 | 12.2 | 0.00 | 0.00 | 0.00 | 58 | 1014.1 |
| 20260503193023 | 58 | 259 | 3.5 | 12.2 | 0.00 | 0.00 | 0.00 | 31 | 1013.7 |
| 20260503191531 | 58 | 289 | 2.6 | 12.2 | 0.00 | 0.00 | 0.00 | 31 | 1013.8 |
| 20260503190026 | 59 | 275 | 2.6 | 10.4 | 0.00 | 0.00 | 0.00 | 29 | 1013.9 |
| 20260503184520 | 60 | 281 | 3.5 | 11.3 | 0.00 | 0.00 | 0.00 | 31 | 1013.9 |
| 20260503183018 | 60 | 204 | 4.3 | 13.9 | 0.00 | 0.00 | 0.00 | 30 | 1014.0 |
| 20260503181517 | 60 | 227 | 3.5 | 11.3 | 0.00 | 0.00 | 0.00 | 30 | 1014.2 |
| 20260503180015 | 60 | 296 | 1.7 | 13.9 | 0.00 | 0.00 | 0.00 | 30 | 1014.6 |
| 20260503174512 | 59 | 177 | 3.5 | 12.2 | 0.00 | 0.00 | 0.00 | 31 | 1014.8 |
| 20260503173012 | 59 | 282 | 4.3 | 12.2 | 0.00 | 0.00 | 0.00 | 29 | 1015.1 |
| 20260503171508 | 59 | 256 | 2.6 | 9.6 | 0.00 | 0.00 | 0.00 | 29 | 1015.3 |
| 20260503160115 | 58 | 238 | 3.5 | 8.7 | 0.00 | 0.00 | 0.00 | 36 | 1015.9 |